GEFSNGP_con_maxscp_204.txt.gz
SCP
0 0 0 0 0 0 0 0 0 1 2 3 5 6 7 8 8 6 5 5 5 5 6 6 5 5 5 6 7 9 11 10 8 6 5 5 4 4 4 3 3 3 2 2
0 0 1 1 1 0 0 1 1 2 3 4 5 6 7 8 7 6 5 5 6 6 6 6 6 6 6 6 7 8 9 8 7 6 5 5 5 4 4 3 3 2 2 2
0 0 1 1 1 1 1 2 2 3 4 5 7 7 7 8 8 7 6 6 6 6 6 6 6 7 7 7 7 7 6 6 5 6 6 6 6 6 5 4 3 3 2 2
0 0 1 1 1 2 2 3 4 5 7 9 9 9 8 9 9 8 6 6 6 6 6 5 6 7 8 7 7 6 5 5 5 6 7 8 8 8 7 5 4 3 3 3
0 0 1 1 2 3 3 4 6 7 8 10 11 10 9 8 8 8 6 6 6 6 5 5 5 6 7 7 7 6 6 5 4 5 7 9 10 9 8 7 6 4 3 3
0 1 1 2 3 3 4 5 6 7 8 9 10 10 8 7 8 8 7 6 6 6 5 4 4 5 6 7 6 6 5 4 4 4 6 9 10 10 9 8 7 5 3 3
0 1 2 3 4 3 4 5 5 6 7 8 9 9 9 9 9 9 8 7 6 6 5 4 4 5 5 6 5 5 4 4 4 5 6 9 10 10 9 8 7 6 4 3
1 1 2 3 4 4 4 5 5 5 6 8 9 9 9 10 10 10 9 8 7 5 4 4 4 5 5 4 4 4 3 3 4 5 7 9 10 9 9 8 8 7 5 4
2 2 3 3 4 4 5 5 5 5 7 9 10 10 10 10 10 10 10 9 7 5 3 3 3 4 4 3 3 3 2 2 3 4 6 8 8 8 8 8 7 7 6 5
2 3 3 4 5 6 6 5 5 5 7 9 11 11 11 11 11 10 9 8 6 4 3 3 3 2 2 2 2 2 1 1 2 3 4 5 5 5 6 6 7 6 6 5
2 2 3 4 5 7 7 6 6 6 7 9 11 12 13 13 12 11 9 7 5 4 3 3 2 2 1 1 1 1 1 1 1 2 2 2 2 2 3 4 4 5 5 5
2 2 2 3 5 5 5 5 6 7 8 10 12 14 15 14 13 11 9 7 5 4 4 3 2 1 1 1 1 1 1 1 1 1 1 1 0 0 0 1 2 2 3 3
1 2 2 3 3 3 4 4 6 8 10 12 14 15 15 14 12 10 8 6 5 4 3 2 2 1 1 1 1 1 1 1 1 1 0 0 0 0 0 0 0 0 1 1
1 2 2 2 2 3 4 6 8 10 11 12 14 13 12 11 9 7 6 5 4 3 2 2 2 2 1 1 1 1 1 1 1 0 0 0 0 0 0 0 0 0 0 0
2 1 1 1 2 3 5 8 9 10 11 11 12 10 9 7 6 5 4 4 3 2 2 2 2 2 2 1 1 0 1 0 0 0 0 0 0 0 0 0 0 0 0 0
1 1 1 2 3 4 6 8 8 9 10 10 9 8 7 6 5 4 3 3 2 2 1 1 1 2 2 2 1 0 0 0 0 0 0 0 0 0 0 0 0 0 0 0
0 1 1 2 4 6 7 6 7 7 8 8 7 6 5 5 4 3 2 2 1 1 1 1 1 2 3 2 1 0 0 0 0 0 0 0 0 0 0 0 0 0 0 0
0 0 1 2 5 7 7 6 6 6 6 6 5 5 4 4 3 2 1 1 1 1 0 0 1 1 2 1 0 0 0 0 0 0 0 0 0 0 0 0 0 0 0 0
0 0 1 1 4 6 7 6 6 6 5 5 4 4 3 3 2 1 1 0 0 0 0 0 0 1 1 0 0 0 0 0 0 0 0 0 0 0 0 0 0 0 0 0
1 1 1 1 3 6 7 6 6 5 5 4 3 3 2 1 1 1 0 0 0 0 0 0 0 0 0 0 0 0 0 0 0 0 0 0 0 0 0 0 0 0 0 0
1 1 1 2 3 5 5 4 4 4 3 3 2 1 1 0 0 0 0 0 0 0 0 0 0 0 0 0 0 0 0 0 0 0 0 0 0 0 0 0 0 0 0 0
1 1 1 1 2 2 2 2 2 2 2 1 1 0 0 0 0 0 0 0 0 0 0 0 0 0 0 0 0 0 0 0 0 0 0 0 0 0 0 0 0 0 0 0
1 0 0 1 1 1 1 1 1 1 0 0 0 0 0 0 0 0 0 0 0 0 0 0 0 0 0 0 0 0 0 0 0 0 0 0 0 0 0 0 0 0 0 0
0 0 0 0 0 0 0 0 0 0 0 0 0 0 0 0 0 0 0 0 0 0 0 0 0 0 0 0 0 0 0 0 0 0 0 0 0 0 0 0 0 0 0 0
0 0 0 0 0 0 0 0 0 0 0 0 0 0 0 0 0 0 0 0 0 0 0 0 0 0 0 0 0 0 0 0 0 0 0 0 0 0 0 0 0 0 0 0
0 0 0 0 0 0 0 0 0 0 0 0 0 0 0 0 0 0 0 0 0 0 0 0 0 0 0 0 0 0 0 0 0 0 0 0 0 0 0 0 0 0 0 0
0 0 0 0 0 0 0 0 0 0 0 0 0 0 0 0 0 0 0 0 0 0 0 0 0 0 0 0 0 0 0 0 0 0 0 0 0 0 0 0 0 0 0 0

GEFSNGP_con_maxscp_210.txt.gz
SCP
0 0 0 0 0 0 0 0 0 1 1 1 2 3 3 4 4 4 3 3 3 4 4 4 3 2 2 3 3 3 3 3 4 6 7 7 6 5 5 4 3 3 3 2
0 0 0 0 0 0 0 0 0 1 1 1 2 3 4 4 4 4 3 4 4 3 3 3 3 2 2 3 3 3 3 3 4 6 7 7 7 6 5 4 4 3 3 2
0 0 0 0 1 1 1 1 1 1 1 2 3 4 4 5 5 4 4 4 4 3 3 3 2 2 3 3 4 3 3 3 4 5 6 6 6 5 4 4 3 3 3 2
0 0 0 1 1 1 1 1 1 1 2 3 3 4 4 5 5 4 4 4 4 4 3 3 2 2 3 4 4 4 4 4 4 4 4 4 4 3 3 3 3 3 3 2
0 0 0 1 1 1 1 1 1 2 3 4 4 5 4 4 4 3 3 4 4 5 4 3 2 2 3 4 4 4 4 4 4 4 4 3 3 2 2 2 2 2 3 3
0 0 1 1 1 1 1 1 2 3 4 5 5 4 4 3 3 3 3 4 5 6 5 3 2 2 3 4 4 4 4 4 4 4 4 3 2 2 2 2 2 2 3 4
0 0 1 1 2 2 1 1 2 3 4 4 4 4 4 4 4 4 4 4 5 6 5 3 2 3 3 4 4 4 4 4 4 4 3 2 2 2 2 2 2 2 3 5
0 1 1 1 2 2 2 2 3 4 4 4 4 4 5 6 6 5 5 4 4 5 5 3 2 2 3 3 3 4 4 4 3 2 2 1 1 2 2 2 3 3 3 5
1 1 1 2 2 2 3 3 4 5 5 4 4 5 5 6 6 6 5 4 4 4 4 2 2 2 2 2 3 3 3 3 2 1 1 1 1 2 2 2 2 2 3 3
2 2 2 2 2 2 3 4 4 5 5 4 4 4 5 6 6 6 5 5 4 4 3 2 2 2 2 2 2 2 2 2 1 1 1 1 1 1 1 2 2 2 2 2
2 2 2 2 2 2 3 3 4 5 5 4 4 4 4 5 5 6 6 6 6 5 4 3 2 2 2 2 2 1 1 1 1 1 1 1 1 1 1 1 1 1 1 1
1 1 2 2 2 3 3 3 3 5 6 6 5 5 5 5 5 6 6 6 6 6 4 3 2 2 2 2 1 1 0 0 0 1 1 1 0 0 0 0 0 0 0 0
1 1 2 2 2 3 3 3 3 4 6 7 7 6 6 5 6 6 6 6 6 6 4 3 2 2 2 2 1 0 0 0 0 0 0 0 0 0 0 0 0 0 0 0
1 1 1 2 2 2 3 3 4 4 5 6 6 6 5 5 6 6 6 6 6 6 4 3 3 2 2 1 1 0 0 0 0 0 0 0 0 0 0 0 0 0 0 0
1 1 1 1 2 2 2 4 5 4 4 4 4 4 4 5 6 6 6 6 6 6 5 4 3 2 1 1 0 0 0 0 0 0 0 0 0 0 0 0 0 0 0 0
1 1 1 1 1 2 2 3 4 4 4 4 4 4 4 5 5 6 6 6 6 5 4 3 2 1 1 0 0 0 1 1 0 0 0 0 0 0 0 0 0 0 0 0
1 1 1 1 1 2 2 2 3 3 4 5 6 6 5 5 5 5 6 6 5 4 3 2 1 0 0 0 0 0 1 1 1 0 0 0 0 0 0 0 0 0 0 0
1 1 0 1 1 2 2 2 2 3 5 6 7 7 6 6 5 5 6 6 5 3 2 1 0 0 0 0 0 0 1 1 1 0 0 0 0 0 0 0 0 0 0 0
0 0 0 0 1 1 1 1 2 3 6 8 8 7 6 6 6 6 6 5 4 3 1 0 0 0 0 0 0 0 0 1 1 0 0 0 0 0 0 0 0 0 0 0
0 0 0 0 1 0 0 0 1 3 7 11 9 7 7 7 7 6 5 4 3 2 1 0 0 0 0 0 0 0 0 0 0 0 0 0 0 0 0 0 0 0 0 0
0 0 0 0 0 0 0 1 2 3 6 9 8 7 7 7 6 5 4 3 2 1 0 0 0 0 0 0 0 0 0 0 0 0 0 0 0 0 0 0 0 0 0 0
0 0 0 0 0 0 1 2 2 3 4 5 5 5 5 5 4 2 1 1 0 0 0 0 0 0 0 0 0 0 0 0 0 0 0 0 0 0 0 0 0 0 0 0
0 0 0 1 1 1 2 2 2 2 3 2 2 2 2 2 1 1 0 0 0 0 0 0 0 0 0 0 0 0 0 0 0 0 0 0 0 0 0 0 0 0 0 0
0 0 0 1 1 1 1 1 1 1 1 1 0 0 0 0 0 0 0 0 0 0 0 0 0 0 0 0 0 0 0 0 0 0 0 0 0 0 0 0 0 0 0 0
0 0 0 1 1 1 1 0 0 0 0 0 0 0 0 0 0 0 0 0 0 0 0 0 0 0 0 0 0 0 0 0 0 0 0 0 0 0 0 0 0 0 0 0
0 0 0 0 0 0 0 0 0 0 0 0 0 0 0 0 0 0 0 0 0 0 0 0 0 0 0 0 0 0 0 0 0 0 0 0 0 0 0 0 0 0 0 0
0 0 0 0 0 0 0 0 0 0 0 0 0 0 0 0 0 0 0 0 0 0 0 0 0 0 0 0 0 0 0 0 0 0 0 0 0 0 0 0 0 0 0 0

GEFSNGP_con_maxscp_216.txt.gz
SCP
0 0 0 0 0 0 0 0 0 0 1 2 3 2 2 3 4 4 4 4 4 4 4 5 5 5 5 5 5 4 4 4 4 3 3 3 4 4 5 7 8 8 9 9
0 0 0 0 0 0 0 0 0 0 2 3 3 3 3 3 4 4 4 4 4 4 4 4 4 5 5 5 5 5 4 4 4 3 3 3 4 4 5 5 6 7 7 7
0 0 0 0 0 0 0 0 0 1 2 4 4 3 3 3 3 4 4 4 4 5 5 5 5 5 5 6 6 6 6 5 4 4 4 4 4 4 4 4 4 5 5 6
0 0 0 1 1 1 1 1 1 1 3 4 4 4 3 3 3 4 4 4 4 5 5 6 5 5 5 6 6 7 7 6 5 5 4 4 4 4 4 4 4 4 4 4
0 0 0 1 1 1 1 1 1 2 4 5 4 4 3 3 4 5 6 6 5 5 6 6 6 6 6 6 6 6 6 6 5 5 4 4 4 4 4 4 4 4 3 3
0 0 0 1 1 1 1 1 2 3 4 4 4 3 4 4 6 7 8 8 8 7 7 7 7 6 6 7 6 6 6 6 5 5 4 4 4 4 5 5 5 4 3 2
0 0 1 1 1 1 1 2 2 3 4 4 4 4 5 6 7 7 8 8 8 8 7 7 6 6 6 6 6 6 6 5 5 4 4 3 3 4 5 5 4 3 2 2
1 1 1 2 3 3 2 2 2 3 4 4 5 5 5 6 7 7 7 7 7 7 6 5 5 5 5 5 5 5 6 5 5 4 3 3 3 4 4 4 3 2 2 2
1 2 2 3 4 4 3 3 3 3 4 4 6 6 5 5 6 7 7 6 6 5 5 4 4 4 4 4 4 4 5 6 5 5 4 4 3 3 3 2 2 2 2 2
3 3 3 3 4 4 3 3 3 4 5 5 6 5 5 5 6 7 7 6 5 5 5 5 4 4 4 3 4 4 5 6 6 6 5 4 3 2 2 1 1 2 2 3
4 3 3 3 3 4 3 3 4 5 6 6 5 5 5 5 6 7 6 6 5 6 6 7 6 6 5 4 3 3 4 5 6 7 6 4 2 1 1 1 1 1 2 2
4 3 3 3 3 4 4 3 4 6 6 6 5 4 5 6 6 6 5 5 5 6 8 8 8 7 6 4 3 3 3 4 5 6 5 2 1 0 0 0 0 0 1 1
3 3 3 3 3 4 4 4 4 5 5 5 4 4 5 5 5 5 5 5 5 7 9 9 8 8 6 4 3 3 2 2 3 3 2 1 0 0 0 0 0 0 0 0
2 2 3 3 4 4 4 5 5 5 5 5 4 4 5 5 5 4 4 4 5 6 8 9 9 8 7 6 5 4 3 2 2 1 1 1 0 0 0 0 0 0 0 0
2 2 3 4 4 4 4 4 5 4 4 4 4 4 4 4 4 4 3 3 3 5 7 9 9 9 8 7 6 4 3 2 1 1 1 1 1 1 0 0 0 0 0 0
2 2 2 3 4 4 3 3 4 3 3 3 3 3 3 3 4 4 3 3 3 4 6 8 9 8 7 7 5 4 2 1 1 1 1 1 1 1 0 0 0 0 0 0
2 2 2 3 3 3 2 2 2 3 3 3 3 3 3 4 4 4 3 3 4 5 6 6 6 6 6 6 4 3 2 1 0 0 1 1 1 1 1 1 0 0 0 0
2 2 3 3 4 3 2 2 2 3 3 2 3 3 3 4 5 4 3 3 5 6 5 4 4 4 5 5 4 2 1 0 0 0 0 1 1 1 1 1 0 0 0 0
2 2 2 3 4 4 3 2 2 2 2 2 2 2 3 4 5 5 4 4 5 6 5 3 3 4 4 4 3 2 1 0 0 0 0 0 1 1 1 1 0 0 0 0
1 1 2 2 3 3 3 2 2 2 1 1 1 1 2 4 5 5 4 4 5 5 3 2 3 4 4 2 2 2 1 0 0 0 0 0 0 0 0 0 0 0 0 0
1 1 1 1 2 2 2 2 1 1 1 1 1 1 2 4 5 5 4 4 4 4 2 3 4 3 2 1 1 1 1 0 0 0 0 0 0 0 0 0 0 0 0 0
1 1 1 1 1 1 2 1 1 1 1 1 1 1 2 4 5 5 5 4 3 2 3 3 3 2 1 1 1 1 0 0 0 0 0 0 0 0 0 0 0 0 0 0
1 1 1 1 1 1 1 1 1 1 1 1 1 1 2 4 5 5 5 3 2 1 2 2 2 1 0 0 0 0 0 0 0 0 0 0 0 0 0 0 0 0 0 0
1 1 1 1 1 1 1 1 1 1 1 1 1 2 3 4 5 5 4 2 1 1 1 1 0 0 0 0 0 0 0 0 0 0 0 0 0 0 0 0 0 0 0 0
1 1 1 1 1 1 1 1 1 1 2 2 2 3 3 4 4 3 2 0 0 0 0 0 0 0 0 0 0 0 0 0 0 0 0 0 0 0 0 0 0 0 0 0
1 1 1 1 1 1 1 1 2 2 2 2 3 3 3 3 2 1 0 0 0 0 0 0 0 0 0 0 0 0 0 0 0 0 0 0 0 0 0 0 0 0 0 0
1 1 1 1 1 1 2 2 2 2 3 2 2 2 2 1 1 0 0 0 0 0 0 0 0 0 0 0 0 0 0 0 0 0 0 0 0 0 0 0 0 0 0 0

GEFSNGP_con_maxscp_222.txt.gz
SCP
0 0 0 0 0 0 0 0 1 2 2 3 4 4 6 9 10 9 10 11 13 16 15 13 11 12 12 11 9 8 7 7 6 6 6 7 9 11 11 8 6 7 8 8
0 0 0 0 0 0 0 0 1 2 3 4 4 5 6 9 11 10 10 10 11 13 13 12 10 10 10 10 8 8 7 6 6 5 6 7 9 10 9 7 6 6 7 7
0 0 0 0 0 0 0 1 1 2 4 6 5 5 6 8 10 11 10 9 9 11 12 12 10 9 9 8 8 7 7 6 5 5 5 7 8 8 7 6 5 5 5 5
1 1 0 0 0 0 1 1 2 3 5 6 6 6 6 7 9 12 13 12 10 10 12 11 10 9 9 8 8 7 6 5 5 5 5 7 8 8 6 5 5 5 5 5
1 1 1 0 0 1 1 2 3 4 5 6 7 7 8 8 10 16 20 19 14 11 10 10 10 10 10 9 8 7 6 5 6 6 7 8 10 9 7 6 5 5 5 5
1 1 1 1 1 1 1 2 4 5 6 7 7 8 9 11 15 22 27 24 18 13 10 11 12 12 12 10 9 7 7 7 7 7 9 10 10 9 6 5 5 4 5 5
1 1 1 1 1 1 2 3 5 6 6 7 8 9 12 16 23 30 30 24 18 15 14 14 14 14 13 11 10 9 9 10 10 10 10 10 9 7 6 5 5 4 4 4
1 2 2 3 3 3 4 6 6 6 6 7 9 13 18 23 29 31 27 20 16 15 16 15 14 13 13 12 12 13 13 13 12 10 9 8 8 7 7 6 5 5 4 4
3 4 5 6 6 6 7 8 8 7 7 8 12 19 23 24 25 23 20 16 14 13 13 13 11 11 12 13 14 14 13 12 10 9 8 8 8 8 7 6 6 5 5 4
5 6 7 7 7 7 8 9 9 8 8 10 15 22 22 19 17 15 13 12 11 10 10 9 8 9 11 12 13 12 10 9 9 9 8 7 6 6 5 4 4 4 4 4
8 9 9 8 7 7 7 9 10 9 10 13 18 21 18 14 11 10 9 9 9 8 7 6 7 9 10 10 9 7 6 6 7 8 6 4 3 3 2 1 1 2 2 2
11 11 10 9 7 7 7 9 9 9 11 15 18 17 14 10 8 8 8 8 7 6 5 6 8 9 10 9 8 6 5 4 6 7 5 2 1 1 1 1 0 0 0 0
10 10 10 10 9 8 8 8 9 10 12 14 14 13 11 9 8 7 7 7 6 5 5 6 8 10 12 11 8 6 5 4 4 5 4 3 2 2 1 1 1 0 0 0
8 7 8 9 10 9 8 9 9 11 12 11 10 10 9 9 8 7 7 6 5 4 4 5 7 10 13 12 9 6 5 4 3 3 3 3 2 2 2 1 1 1 0 0
6 6 5 6 7 7 8 8 9 9 9 8 7 7 8 8 7 6 6 5 4 4 4 4 6 10 14 13 10 7 5 4 3 2 2 2 2 1 1 1 1 1 1 1
5 5 4 4 4 4 5 6 6 6 6 6 5 5 5 6 6 6 5 5 4 4 3 4 5 9 14 14 11 8 5 4 2 2 1 1 1 1 1 1 1 1 1 1
4 4 4 3 2 3 3 4 4 5 5 6 5 5 4 4 5 5 5 4 4 3 3 4 5 9 13 13 11 8 5 3 2 1 1 1 1 0 0 0 0 1 1 1
3 3 3 3 2 2 3 3 4 4 5 5 5 5 4 4 4 4 4 4 4 3 4 4 6 9 12 12 10 8 5 3 2 1 1 1 0 0 0 0 0 0 1 1
2 2 2 2 2 2 3 3 4 4 4 4 4 4 4 4 3 3 3 3 4 4 4 5 5 8 10 10 9 7 5 2 1 1 1 0 0 0 0 0 0 0 0 0
2 2 2 2 2 3 3 3 4 3 3 3 3 3 4 3 3 3 2 2 3 4 4 4 4 6 7 7 6 5 3 2 1 1 1 0 0 0 0 0 0 0 0 0
2 2 3 3 3 3 3 3 3 3 2 3 3 3 3 3 2 2 2 2 3 3 3 3 3 4 5 5 4 3 2 2 1 1 0 0 0 0 0 0 0 0 0 0
2 2 3 3 3 3 3 3 3 2 2 2 2 3 3 3 2 2 2 2 3 3 2 2 2 3 3 3 2 2 3 2 1 1 0 0 0 0 0 0 0 0 0 0
1 2 3 3 3 3 2 2 2 2 2 2 2 2 3 3 3 2 2 2 3 2 2 2 1 1 2 2 2 3 3 3 1 1 0 0 0 0 0 0 0 0 0 0
2 2 3 3 3 3 3 3 3 2 2 2 2 2 3 3 3 3 2 2 2 2 1 1 1 1 1 2 3 3 3 2 1 1 0 0 0 0 0 0 0 0 0 0
2 3 3 3 3 3 3 4 3 2 2 2 2 3 3 3 3 3 3 3 2 1 1 1 0 0 1 2 3 3 2 2 1 0 0 0 0 0 0 0 0 0 0 0
3 4 4 4 3 3 3 3 3 2 2 2 2 3 3 3 3 3 3 2 1 1 1 1 0 1 1 2 2 2 1 1 0 0 0 0 0 0 0 0 0 0 0 0
4 5 5 4 3 2 3 3 3 3 2 2 2 2 3 4 5 4 3 2 1 1 1 1 1 1 1 1 1 1 1 0 0 0 0 0 0 0 0 0 0 0 0 0